Retour au catalogue

STARLINK-32458

ActifCommunicationsVLEO
NORAD 61962·PAYLOAD·🇺🇸 United States

Lancé Nov 14, 2024 depuis Cape Canaveral Space Force Station

Loading…

Prochains Passages (prochaines 24 heures)

TLE

FraisSource: CelesTrak SupGP

Époque: Sep 14, 2026, 23:00 UTC

1 61962C 24210D   26257.95881944 -.00034046  00000+0 -12326-2 0  2574
2 61962  43.0026 176.5962 0001304 273.4337  25.2352 15.27608422    11

Suivez STARLINK-32458 en temps réel avec AllMySat

Download on the App Store